RYR8EJ LEMD-LEPA

Flight info

Callsign RYR8EJ
Flight time 0h 59m
Altitude 30000
Route NANDO T257 FENXE/N0417F320 T257 LASPO/N0371F260 M871 GODOX
Aircraft B738/M-SDE2E3FGHIRWXY/LB1

Departure

Time 2026-05-01 10:21
Airport Adolfo Suárez Madrid–Barajas Airport (LEMD)

Arrival

Time 2026-05-01 11:20
Airport Palma de Mallorca Airport (LEPA)
Time Latitude Longitude Altitude Speed Heading
2026-05-01 09:45 40.46498 -3.56806 1971 ft 0 kts 271°
2026-05-01 10:06 40.46498 -3.56778 1971 ft 4 kts 271°
2026-05-01 10:06 40.46497 -3.56750 1977 ft 4 kts 278°
2026-05-01 10:06 40.46488 -3.56723 1975 ft 4 kts 336°
2026-05-01 10:07 40.46464 -3.56719 1975 ft 4 kts
2026-05-01 10:07 40.46452 -3.56720 1972 ft 1 kts
2026-05-01 10:09 40.46454 -3.56720 1972 ft 1 kts
2026-05-01 10:09 40.46484 -3.56718 1971 ft 7 kts
2026-05-01 10:09 40.46550 -3.56713 1974 ft 12 kts
2026-05-01 10:09 40.46656 -3.56706 1972 ft 17 kts
2026-05-01 10:10 40.46773 -3.56693 1973 ft 17 kts 17°
2026-05-01 10:10 40.46809 -3.56563 1976 ft 16 kts 73°
2026-05-01 10:10 40.47011 -3.56552 1977 ft 15 kts 354°
2026-05-01 10:11 40.47108 -3.56594 1981 ft 16 kts 331°
2026-05-01 10:11 40.47213 -3.56694 1983 ft 20 kts 322°
2026-05-01 10:11 40.47319 -3.56801 1987 ft 19 kts 322°
2026-05-01 10:11 40.47421 -3.56905 1990 ft 18 kts 322°
2026-05-01 10:12 40.47521 -3.57005 1992 ft 18 kts 322°
2026-05-01 10:12 40.47616 -3.57101 1994 ft 17 kts 322°
2026-05-01 10:12 40.47823 -3.57311 2002 ft 21 kts 322°
2026-05-01 10:13 40.47937 -3.57427 2001 ft 22 kts 320°
2026-05-01 10:13 40.48053 -3.57548 2000 ft 21 kts 321°
2026-05-01 10:13 40.48165 -3.57664 1996 ft 20 kts 322°
2026-05-01 10:14 40.48386 -3.57877 1990 ft 19 kts 327°
2026-05-01 10:14 40.48498 -3.57972 1997 ft 19 kts 328°
2026-05-01 10:14 40.48612 -3.58049 2000 ft 18 kts 357°
2026-05-01 10:14 40.48738 -3.58050 2002 ft 18 kts
2026-05-01 10:15 40.48860 -3.58049 2002 ft 17 kts
2026-05-01 10:15 40.48975 -3.58047 2000 ft 17 kts
2026-05-01 10:15 40.49085 -3.58038 2001 ft 16 kts 348°
2026-05-01 10:15 40.49192 -3.58054 2002 ft 15 kts
2026-05-01 10:16 40.49243 -3.57952 1998 ft 16 kts 90°
2026-05-01 10:16 40.49243 -3.57804 1993 ft 14 kts 90°
2026-05-01 10:16 40.49363 -3.57683 1987 ft 14 kts 358°
2026-05-01 10:17 40.49458 -3.57691 1987 ft 13 kts 345°
2026-05-01 10:17 40.49512 -3.57659 1988 ft 7 kts 107°
2026-05-01 10:17 40.49512 -3.57631 1986 ft 0 kts 75°
2026-05-01 10:18 40.49512 -3.57630 1986 ft 1 kts 76°
2026-05-01 10:18 40.49516 -3.57609 1985 ft 5 kts 72°
2026-05-01 10:18 40.49547 -3.57535 1987 ft 13 kts 53°
2026-05-01 10:19 40.49641 -3.57460 1985 ft 19 kts 13°
2026-05-01 10:19 40.49680 -3.57455 1984 ft 0 kts 358°
2026-05-01 10:20 40.49759 -3.57456 1984 ft 39 kts
2026-05-01 10:21 40.50352 -3.57458 1990 ft 128 kts 360°
2026-05-01 10:21 40.52939 -3.57472 2811 ft 218 kts
2026-05-01 10:21 40.54411 -3.57486 4111 ft 206 kts
2026-05-01 10:22 40.57452 -3.56671 5620 ft 240 kts 18°
2026-05-01 10:22 40.60729 -3.55379 7100 ft 253 kts 17°
2026-05-01 10:23 40.62423 -3.54733 7791 ft 255 kts 16°
2026-05-01 10:23 40.65968 -3.53926 9277 ft 264 kts
2026-05-01 10:23 40.67813 -3.53803 10155 ft 267 kts
2026-05-01 10:24 40.71254 -3.52153 11480 ft 286 kts 51°
2026-05-01 10:24 40.73419 -3.47538 12731 ft 303 kts 64°
2026-05-01 10:25 40.75700 -3.42823 14375 ft 307 kts 64°
2026-05-01 10:25 40.76019 -3.37427 15814 ft 307 kts 116°
2026-05-01 10:26 40.74926 -3.35035 16490 ft 308 kts 132°
2026-05-01 10:26 40.73594 -3.32807 17185 ft 311 kts 133°
2026-05-01 10:26 40.70881 -3.28296 18631 ft 316 kts 136°
2026-05-01 10:27 40.67041 -3.25354 19238 ft 340 kts 162°
2026-05-01 10:27 40.62384 -3.23033 19643 ft 373 kts 162°
2026-05-01 10:28 40.59944 -3.21790 20172 ft 378 kts 161°
2026-05-01 10:28 40.55027 -3.19224 21445 ft 382 kts 161°
2026-05-01 10:28 40.52549 -3.17916 22013 ft 386 kts 161°
2026-05-01 10:29 40.47524 -3.15239 23133 ft 393 kts 161°
2026-05-01 10:29 40.44979 -3.13892 23696 ft 396 kts 162°
2026-05-01 10:30 40.39859 -3.11007 24440 ft 409 kts 150°
2026-05-01 10:30 40.35489 -3.06112 25362 ft 416 kts 142°
2026-05-01 10:31 40.31125 -3.01081 26305 ft 419 kts 142°
2026-05-01 10:31 40.26686 -2.96012 27030 ft 427 kts 142°
2026-05-01 10:32 40.22183 -2.90870 27845 ft 432 kts 142°
2026-05-01 10:32 40.19905 -2.88267 28069 ft 439 kts 142°
2026-05-01 10:32 40.15240 -2.82973 28722 ft 447 kts 141°
2026-05-01 10:33 40.12051 -2.75998 29428 ft 458 kts 109°
2026-05-01 10:33 40.10258 -2.67984 30086 ft 464 kts 108°
2026-05-01 10:34 40.09373 -2.63946 30184 ft 458 kts 110°
2026-05-01 10:34 40.07632 -2.56095 30187 ft 447 kts 110°
2026-05-01 10:35 40.04970 -2.44345 30197 ft 453 kts 110°
2026-05-01 10:35 40.03178 -2.36453 30209 ft 455 kts 110°
2026-05-01 10:36 40.00509 -2.24659 30192 ft 447 kts 111°
2026-05-01 10:37 39.98683 -2.16919 30222 ft 443 kts 115°
2026-05-01 10:37 39.94267 -2.06382 30216 ft 443 kts 125°
2026-05-01 10:38 39.91243 -1.99621 30221 ft 445 kts 124°
2026-05-01 10:38 39.88230 -1.92629 30225 ft 445 kts 123°
2026-05-01 10:39 39.85244 -1.85598 30224 ft 442 kts 123°
2026-05-01 10:39 39.82277 -1.78617 30229 ft 439 kts 123°
2026-05-01 10:40 39.79825 -1.72864 30231 ft 436 kts 124°
2026-05-01 10:40 39.76892 -1.65984 30237 ft 434 kts 123°
2026-05-01 10:41 39.73973 -1.59131 30243 ft 433 kts 123°
2026-05-01 10:42 39.69524 -1.48877 30230 ft 438 kts 124°
2026-05-01 10:42 39.66491 -1.41921 30225 ft 445 kts 123°
2026-05-01 10:43 39.63459 -1.34906 30228 ft 447 kts 123°
2026-05-01 10:43 39.60419 -1.27858 30205 ft 448 kts 123°
2026-05-01 10:44 39.57390 -1.20826 30213 ft 445 kts 123°
2026-05-01 10:44 39.54349 -1.13856 30202 ft 443 kts 123°
2026-05-01 10:45 39.51309 -1.06921 30226 ft 442 kts 123°
2026-05-01 10:45 39.48296 -0.99977 30239 ft 443 kts 123°
2026-05-01 10:46 39.45317 -0.93110 30224 ft 444 kts 123°
2026-05-01 10:46 39.42271 -0.86143 30244 ft 445 kts 123°
2026-05-01 10:47 39.39212 -0.79191 30238 ft 445 kts 124°
2026-05-01 10:47 39.36129 -0.72240 30236 ft 445 kts 124°
2026-05-01 10:48 39.33075 -0.65283 30229 ft 445 kts 123°
2026-05-01 10:48 39.30046 -0.58344 30204 ft 445 kts 119°
2026-05-01 10:48 39.28982 -0.54573 30243 ft 447 kts 107°
2026-05-01 10:49 39.28489 -0.50651 30226 ft 450 kts 97°
2026-05-01 10:49 39.28755 -0.42573 30229 ft 451 kts 89°
2026-05-01 10:50 39.29198 -0.34533 30235 ft 451 kts 90°
2026-05-01 10:50 39.29622 -0.26772 30221 ft 451 kts 90°
2026-05-01 10:51 39.30048 -0.18794 30217 ft 451 kts 90°
2026-05-01 10:51 39.30467 -0.10718 30222 ft 451 kts 90°
2026-05-01 10:52 39.30878 -0.02638 30229 ft 451 kts 90°
2026-05-01 10:52 39.31276 0.05335 30209 ft 452 kts 90°
2026-05-01 10:53 39.31677 0.13427 30219 ft 451 kts 91°
2026-05-01 10:53 39.31873 0.17446 29863 ft 445 kts 91°
2026-05-01 10:53 39.32067 0.21389 29519 ft 435 kts 91°
2026-05-01 10:53 39.32258 0.25252 29104 ft 428 kts 91°
2026-05-01 10:54 39.32654 0.29033 28689 ft 424 kts 78°
2026-05-01 10:54 39.33314 0.32717 28268 ft 417 kts 84°
2026-05-01 10:54 39.33351 0.36410 27912 ft 407 kts 97°
2026-05-01 10:54 39.33186 0.40042 27491 ft 404 kts 93°
2026-05-01 10:55 39.33209 0.43650 27109 ft 400 kts 90°
2026-05-01 10:55 39.33332 0.47214 26784 ft 395 kts 89°
2026-05-01 10:55 39.33495 0.50736 26401 ft 391 kts 88°
2026-05-01 10:55 39.33668 0.54226 26027 ft 387 kts 88°
2026-05-01 10:56 39.33838 0.57679 25658 ft 384 kts 88°
2026-05-01 10:56 39.34002 0.61106 25290 ft 381 kts 88°
2026-05-01 10:56 39.34160 0.64506 24909 ft 378 kts 88°
2026-05-01 10:56 39.34312 0.67884 24555 ft 375 kts 88°
2026-05-01 10:57 39.34461 0.71238 24183 ft 373 kts 88°
2026-05-01 10:57 39.34607 0.74578 23803 ft 372 kts 88°
2026-05-01 10:57 39.34751 0.77900 23385 ft 369 kts 88°
2026-05-01 10:57 39.34893 0.81195 22998 ft 366 kts 88°
2026-05-01 10:58 39.35032 0.84459 22642 ft 362 kts 88°
2026-05-01 10:58 39.35168 0.87686 22273 ft 358 kts 88°
2026-05-01 10:58 39.35303 0.90882 21917 ft 355 kts 89°
2026-05-01 10:58 39.35435 0.94053 21559 ft 352 kts 88°
2026-05-01 10:59 39.35565 0.97188 21214 ft 348 kts 88°
2026-05-01 10:59 39.35689 1.00194 20883 ft 346 kts 89°
2026-05-01 10:59 39.35814 1.03255 20549 ft 343 kts 89°
2026-05-01 10:59 39.35939 1.06322 20207 ft 341 kts 88°
2026-05-01 11:00 39.36062 1.09367 19870 ft 338 kts 88°
2026-05-01 11:00 39.36181 1.12397 19533 ft 336 kts 89°
2026-05-01 11:00 39.36297 1.15404 19200 ft 334 kts 89°
2026-05-01 11:00 39.36414 1.18398 18871 ft 333 kts 89°
2026-05-01 11:01 39.36531 1.21362 18544 ft 331 kts 89°
2026-05-01 11:01 39.36647 1.24290 18170 ft 330 kts 88°
2026-05-01 11:01 39.36763 1.27241 17806 ft 328 kts 89°
2026-05-01 11:01 39.36879 1.30210 17454 ft 326 kts 89°
2026-05-01 11:02 39.36991 1.33084 17125 ft 323 kts 89°
2026-05-01 11:02 39.37102 1.35975 16795 ft 321 kts 89°
2026-05-01 11:02 39.37211 1.38849 16468 ft 319 kts 89°
2026-05-01 11:02 39.37331 1.41747 16137 ft 318 kts 86°
2026-05-01 11:03 39.37624 1.44568 15834 ft 316 kts 82°
2026-05-01 11:03 39.37999 1.47315 15527 ft 314 kts 81°
2026-05-01 11:03 39.38395 1.50086 15216 ft 313 kts 80°
2026-05-01 11:03 39.38785 1.52846 14897 ft 311 kts 81°
2026-05-01 11:04 39.39165 1.55595 14585 ft 310 kts 81°
2026-05-01 11:04 39.39537 1.58340 14271 ft 309 kts 81°
2026-05-01 11:04 39.39901 1.61076 13947 ft 309 kts 81°
2026-05-01 11:04 39.40262 1.63806 13599 ft 308 kts 81°
2026-05-01 11:05 39.40619 1.66534 13263 ft 306 kts 81°
2026-05-01 11:05 39.40972 1.69238 12942 ft 305 kts 81°
2026-05-01 11:05 39.41321 1.71930 12627 ft 303 kts 82°
2026-05-01 11:05 39.41668 1.74609 12313 ft 301 kts 82°
2026-05-01 11:06 39.42012 1.77265 12011 ft 299 kts 82°
2026-05-01 11:06 39.42353 1.79908 11709 ft 297 kts 82°
2026-05-01 11:06 39.42691 1.82536 11407 ft 295 kts 82°
2026-05-01 11:07 39.43361 1.87753 10811 ft 292 kts 82°
2026-05-01 11:07 39.43692 1.90340 10508 ft 291 kts 82°
2026-05-01 11:07 39.44021 1.92910 10293 ft 287 kts 82°
2026-05-01 11:07 39.44343 1.95430 10075 ft 283 kts 82°
2026-05-01 11:08 39.44662 1.97935 9777 ft 282 kts 82°
2026-05-01 11:08 39.44959 2.00279 9649 ft 274 kts 82°
2026-05-01 11:08 39.45753 2.05003 9225 ft 267 kts 72°
2026-05-01 11:09 39.46362 2.07262 8983 ft 265 kts 71°
2026-05-01 11:09 39.46984 2.09502 8716 ft 263 kts 71°
2026-05-01 11:09 39.47595 2.11727 8456 ft 262 kts 71°
2026-05-01 11:10 39.48789 2.16153 7948 ft 259 kts 71°
2026-05-01 11:10 39.49367 2.18323 7709 ft 252 kts 71°
2026-05-01 11:10 39.49931 2.20453 7333 ft 248 kts 71°
2026-05-01 11:10 39.50471 2.22502 7046 ft 235 kts 71°
2026-05-01 11:11 39.50972 2.24420 6796 ft 221 kts 72°
2026-05-01 11:11 39.51457 2.26279 6559 ft 208 kts 71°
2026-05-01 11:11 39.51909 2.28004 6335 ft 197 kts 72°
2026-05-01 11:11 39.52336 2.29628 6153 ft 185 kts 72°
2026-05-01 11:12 39.52743 2.31182 5973 ft 180 kts 73°
2026-05-01 11:12 39.53140 2.32707 5814 ft 180 kts 73°
2026-05-01 11:12 39.53543 2.34253 5640 ft 184 kts 74°
2026-05-01 11:12 39.53947 2.35825 5459 ft 182 kts 73°
2026-05-01 11:13 39.54343 2.37357 5271 ft 177 kts 74°
2026-05-01 11:13 39.54729 2.38854 5066 ft 173 kts 78°
2026-05-01 11:13 39.54591 2.40313 4859 ft 173 kts 125°
2026-05-01 11:13 39.53852 2.41557 4694 ft 173 kts 125°
2026-05-01 11:14 39.53170 2.42823 4512 ft 174 kts 124°
2026-05-01 11:14 39.52474 2.44123 4298 ft 176 kts 124°
2026-05-01 11:14 39.51775 2.45425 4096 ft 176 kts 124°
2026-05-01 11:14 39.51080 2.46715 3904 ft 174 kts 124°
2026-05-01 11:15 39.50389 2.47996 3709 ft 173 kts 124°
2026-05-01 11:15 39.49704 2.49262 3508 ft 171 kts 123°
2026-05-01 11:15 39.49022 2.50522 3314 ft 170 kts 124°
2026-05-01 11:15 39.48345 2.51769 3114 ft 168 kts 123°
2026-05-01 11:16 39.47680 2.53009 2926 ft 167 kts 120°
2026-05-01 11:16 39.47467 2.54413 2723 ft 162 kts 75°
2026-05-01 11:16 39.47869 2.55763 2628 ft 163 kts 69°
2026-05-01 11:16 39.48352 2.57096 2458 ft 168 kts 64°
2026-05-01 11:17 39.48882 2.58436 2236 ft 166 kts 64°
2026-05-01 11:17 39.49408 2.59705 2029 ft 154 kts 62°
2026-05-01 11:17 39.49934 2.60862 1820 ft 143 kts 60°
2026-05-01 11:17 39.50442 2.61953 1641 ft 142 kts 60°
2026-05-01 11:18 39.50945 2.63025 1448 ft 138 kts 60°
2026-05-01 11:18 39.51447 2.64095 1288 ft 141 kts 60°
2026-05-01 11:18 39.51951 2.65168 1088 ft 142 kts 60°
2026-05-01 11:18 39.52464 2.66255 918 ft 140 kts 60°
2026-05-01 11:19 39.52973 2.67330 725 ft 141 kts 59°
2026-05-01 11:19 39.53473 2.68396 591 ft 138 kts 60°
2026-05-01 11:19 39.53979 2.69489 407 ft 142 kts 59°
2026-05-01 11:19 39.54503 2.70601 148 ft 145 kts 60°
2026-05-01 11:20 39.55004 2.71658 35 ft 136 kts 60°
2026-05-01 11:20 39.55397 2.72503 29 ft 69 kts 59°
2026-05-01 11:20 39.55486 2.72842 29 ft 22 kts 124°
2026-05-01 11:20 39.55447 2.72905 29 ft 8 kts 129°
2026-05-01 11:21 39.55399 2.72959 29 ft 12 kts 148°
2026-05-01 11:21 39.55310 2.72951 29 ft 12 kts 195°
2026-05-01 11:21 39.55278 2.72941 29 ft 0 kts 192°